{"data":{"norad_id":60388,"epoch":"2026-05-25T03:31:08.971104Z","epoch_age_seconds":55579,"freshness":"FRESH","line1":"1 60388U 24140K   26145.14663161  .00000094  00000+0  12672-3 0  9995","line2":"2 60388  88.9730 281.7488 0016337  68.0615 292.2271 13.51011753 89522","mean_motion":13.51011753,"eccentricity":0.0016337,"inclination_deg":88.973,"raan_deg":281.7488,"arg_perigee_deg":68.0615,"mean_anomaly_deg":292.2271,"bstar":0.00012672,"rev_number":8952,"period_min":106.58678555552,"perigee_km":1056.3727635664,"apogee_km":1080.7040307591,"semimajor_km":7446.6753971627,"source":"CELESTRAK","updated_at":"2026-05-25T13:38:02.041565Z"}}